[[[{"header":{"parameterUnit":"kt","parameterCategory":2,"dx":1,"dy":1,"la1":30.253999710083008,"la2":30.299108505249023,"lo1":-89.0895004272461,"lo2":-89.04439544677734,"nx":28,"ny":28,"refTime":"2022-09-30T21:00:00:Z","depth":0,"parameterNumber":1,"parameterNumberName":"U-component_of_WINDS"},"data":[-0.4561,-0.4698,-0.4719,-0.4886,-0.4932,-0.505,-0.51,-0.5165,-0.5223,-0.5366,-0.5452,-0.5488,-0.5555,-0.5664,-0.5759,-0.5773,-0.5814,-0.5846,-0.5858,-0.5691,-0.5669,-0.5648,-0.5618,-0.5854,-0.5854,-0.603,-0.6032,-0.6033,-0.4435,-0.4483,-0.4576,-0.4682,-0.4763,-0.4743,-0.4826,-0.4896,-0.5002,-0.5074,-0.516,-0.5288,-0.5393,-0.545,-0.5554,-0.562,-0.5619,-0.5647,-0.5645,-0.5657,-0.5477,-0.5445,-0.5647,-0.5647,-0.5647,-0.5647,-0.5647,-0.5647,-0.4213,-0.4294,-0.437,-0.4472,-0.4531,-0.4601,-0.4683,-0.4725,-0.4818,-0.4929,-0.4936,-0.5057,-0.5134,-0.5271,-0.5322,-0.5418,-0.5391,-0.543,-0.5441,-0.5451,-0.546,-0.5207,-0.5436,-0.5436,-0.5435,-0.5435,-0.5435,0,-0.4057,-0.4069,-0.4161,-0.4259,-0.4334,-0.4413,-0.4488,-0.4539,-0.4573,-0.4649,-0.476,-0.4828,-0.4962,-0.5071,-0.5173,-0.522,-0.5212,-0.5212,-0.5239,-0.524,-0.5227,-0.5239,-0.4949,-0.5206,-0.5204,-0.5203,-0.5202,-0.5201,-0.3838,-0.3929,-0.4018,-0.408,-0.4127,-0.4225,-0.4289,-0.4312,-0.4379,-0.4476,-0.4547,-0.4655,-0.4743,-0.4918,-0.4969,-0.507,-0.5068,-0.5164,-0.5084,-0.5079,-0.5074,-0.507,-0.5081,-0.5181,-0.5184,-0.5186,-0.5188,0,-0.3712,-0.3746,-0.3895,-0.3975,-0.3998,-0.4094,-0.4163,-0.4245,-0.4277,-0.4396,-0.4425,-0.4476,-0.4586,-0.4621,-0.4753,-0.4769,-0.4929,-0.4922,-0.4902,-0.4905,-0.4997,-0.4989,-0.5285,-0.5326,-0.5078,-0.508,-0.5082,0,-0.354,-0.366,-0.3704,-0.3789,-0.3922,-0.3942,-0.4074,-0.4115,-0.4182,-0.4275,-0.4269,-0.4357,-0.4387,-0.4481,-0.4504,-0.464,-0.4664,-0.4686,-0.4691,-0.4689,-0.4687,-0.4729,-0.472,-0.4695,-0.4694,-0.4692,-0.4691,0,-0.3344,-0.3507,-0.3643,-0.3687,-0.3785,-0.3849,-0.3894,-0.3968,-0.4031,-0.4117,-0.4159,-0.4258,-0.4314,-0.4391,-0.442,-0.4364,-0.4587,-0.4516,-0.4609,-0.4609,-0.4661,-0.4658,-0.4907,-0.4689,-0.4689,-0.4688,-0.4688,0,-0.3212,-0.3298,-0.349,-0.3573,-0.3615,-0.3705,-0.3804,-0.3889,-0.3969,-0.3989,-0.4057,-0.4059,-0.4179,-0.4107,-0.4274,-0.4193,-0.4248,-0.4279,-0.4286,-0.4304,-0.4223,-0.4364,-0.4593,-0.462,-0.4313,-0.431,-0.4307,0,-0.298,-0.3183,-0.3202,-0.3385,-0.3484,-0.3471,-0.3572,-0.3642,-0.3677,-0.3767,-0.3806,-0.3909,-0.3862,-0.39,-0.3977,-0.4023,-0.4127,-0.4009,-0.4144,-0.4148,-0.4127,-0.4337,-0.4365,-0.4538,-0.4268,-0.4272,-0.4275,0,-0.2805,-0.2923,-0.2955,-0.3005,-0.3101,-0.3184,-0.3298,-0.3405,-0.3464,-0.3543,-0.3642,-0.3786,-0.3758,-0.382,-0.3832,-0.3911,-0.4057,-0.3871,-0.3874,-0.3907,-0.425,-0.4276,-0.4304,-0.4048,-0.4053,-0.4057,-0.4243,0,-0.2604,-0.271,-0.2794,-0.2905,-0.2974,-0.309,-0.3127,-0.3195,-0.3199,-0.3234,-0.3379,-0.3448,-0.3558,-0.3598,-0.3605,-0.3773,-0.3751,-0.372,-0.3657,-0.3793,-0.3856,-0.3881,-0.356,-0.3558,-0.3557,-0.3556,0,0,-0.2376,-0.2528,-0.2546,-0.2658,-0.2718,-0.2704,-0.2825,-0.2882,-0.2998,-0.3041,-0.3004,-0.3218,-0.3276,-0.3449,-0.3494,-0.3538,-0.3573,-0.3524,-0.3727,-0.3746,-0.3763,-0.383,-0.3855,-0.3553,-0.3553,-0.3552,-0.3552,0,-0.2311,-0.2366,-0.2484,-0.2544,-0.2632,-0.2663,-0.2691,-0.2777,-0.2806,-0.2947,-0.2936,-0.3028,-0.3198,-0.3263,-0.3317,-0.3502,-0.3492,-0.3532,-0.3621,-0.3711,-0.3732,-0.375,-0.382,-0.3844,-0.3548,-0.3548,-0.3549,0,-0.2149,-0.2211,-0.2271,-0.2405,-0.2463,-0.2565,-0.2506,-0.2616,-0.2693,-0.2675,-0.2816,-0.286,-0.2949,-0.3105,-0.3177,-0.3147,-0.3416,-0.3337,-0.3347,-0.3358,-0.3448,-0.3473,-0.3495,-0.3204,-0.3202,-0.3201,0,0,-0.2088,-0.2185,-0.2261,-0.2394,-0.2431,-0.2479,-0.2537,-0.2548,-0.2627,-0.2658,-0.2715,-0.2793,-0.2892,-0.2958,-0.3054,-0.322,-0.3242,-0.3293,-0.331,-0.3323,-0.334,-0.3433,-0.3458,-0.3196,-0.3196,-0.3196,0,0,-0.206,-0.2152,-0.2143,-0.2301,-0.2375,-0.246,-0.254,-0.2532,-0.2622,-0.2613,-0.2639,-0.2661,-0.2808,-0.2853,-0.2779,-0.3033,-0.2968,-0.2987,-0.2999,-0.302,-0.3036,-0.3025,-0.2732,0,0,0,0,0,-0.2014,-0.214,-0.2131,-0.2163,-0.2333,-0.2464,-0.2486,-0.251,-0.2464,-0.2527,-0.2573,-0.2557,-0.2818,-0.2754,-0.2786,-0.287,-0.313,-0.3142,-0.3153,-0.3208,-0.323,-0.3248,0,0,0,0,0,0,-0.2027,-0.2066,-0.2127,-0.2217,-0.2255,-0.246,-0.2387,-0.2397,-0.2458,-0.2452,-0.2548,-0.256,-0.2584,-0.2739,-0.2768,-0.2847,-0.2722,-0.3134,-0.3144,-0.3153,-0.3216,-0.3233,-0.3248,0,0,0,0,0,-0.2037,-0.2069,-0.2335,-0.2215,-0.2249,-0.231,-0.2382,-0.239,-0.2438,-0.251,-0.2521,-0.245,-0.2585,-0.2611,-0.2756,-0.2833,-0.2702,-0.2713,-0.3141,-0.3149,-0.3156,-0.3224,0,0,0,0,0,0,-0.2045,-0.2078,-0.2342,-0.2354,-0.2169,-0.2299,-0.232,-0.2384,-0.2492,-0.2504,-0.2413,-0.2407,-0.2588,-0.2608,-0.2628,-0.2827,-0.2686,-0.2697,-0.2703,-0.3147,-0.3153,-0.3159,0,0,0,0,0,0,-0.2061,-0.2087,-0.2348,-0.2289,-0.2293,-0.2289,-0.2308,-0.2435,-0.2494,-0.2389,-0.2387,-0.2409,-0.2558,-0.2606,-0.2621,-0.2818,-0.2673,-0.2684,-0.2691,-0.2695,-0.3152,-0.3157,0,0,0,0,0,0,-0.2072,-0.2095,-0.2286,-0.229,-0.2293,-0.242,-0.2402,-0.2575,-0.2441,-0.2384,-0.2429,-0.2424,-0.2557,-0.2573,-0.2617,-0.2807,-0.2815,-0.2674,-0.2681,-0.2686,-0.2689,0,0,0,0,0,0,0,-0.2082,-0.1924,-0.2276,-0.229,-0.2293,-0.2457,-0.246,-0.2463,-0.2439,-0.2435,-0.243,-0.2426,-0.2614,-0.2625,-0.2637,-0.2798,0,0,-0.2673,-0.2678,0,0,0,0,0,0,0,0,-0.1915,-0.1922,-0.2276,-0.2279,-0.2281,-0.2457,-0.246,-0.2462,-0.2439,-0.2435,-0.2431,-0.2428,-0.2617,-0.2626,-0.2635,0,0,0,0,0,0,0,0,0,0,0,0,0,0,0,-0.2277,-0.2279,0,-0.2457,-0.2459,-0.2462,-0.2438,-0.2435,-0.2432,-0.2429,-0.2619,-0.2627,-0.2635,0,0,0,0,0,0,0,0,0,0,0,0,0,0,0,0,0,0,0,0,0,0,0,0,0,0,0,0,0,0,0,0,0,0,0,0,0,0,0,0,0,0,0,0,0,0,0,0,0,0,0,0,0,0,0,0,0,0,0,0,0,0,0,0,0,0,0,0,0]}],[{"header":{"parameterUnit":"kt","parameterCategory":2,"dx":1,"dy":1,"la1":30.253999710083008,"la2":30.299108505249023,"lo1":-89.0895004272461,"lo2":-89.04439544677734,"nx":28,"ny":28,"refTime":"2022-09-30T21:00:00:Z","depth":0,"parameterNumber":2,"parameterNumberName":"V-component_of_WINDS"},"data":[-9.9133,-9.9365,-9.9395,-9.9671,-9.9743,-9.9936,-10.0013,-10.0115,-10.0202,-10.0431,-10.0566,-10.0615,-10.0709,-10.0873,-10.1018,-10.1035,-10.1094,-10.1155,-10.1164,-10.0869,-10.0829,-10.0792,-10.074,-10.1168,-10.1169,-10.1466,-10.1469,-10.1471,-9.8912,-9.8988,-9.9144,-9.9314,-9.9446,-9.9405,-9.9534,-9.9646,-9.9818,-9.9927,-10.0062,-10.0263,-10.0424,-10.0499,-10.0656,-10.076,-10.0747,-10.08,-10.0792,-10.0807,-10.0493,-10.0438,-10.0808,-10.0808,-10.0808,-10.0808,-10.0808,-10.0808,-9.8518,-9.8656,-9.8777,-9.8946,-9.9039,-9.9151,-9.9286,-9.9345,-9.9494,-9.9667,-9.9669,-9.9861,-9.9972,-10.0175,-10.0248,-10.0395,-10.034,-10.0405,-10.0422,-10.0437,-10.0452,-10.0017,-10.0423,-10.0422,-10.0421,-10.042,-10.0419,0,-9.8238,-9.8254,-9.8405,-9.8565,-9.8689,-9.8815,-9.8934,-9.9018,-9.9055,-9.9176,-9.9353,-9.9458,-9.9665,-9.9831,-9.9983,-10.0046,-10.001,-10.001,-10.0055,-10.0057,-10.0039,-10.005,-9.9535,-9.9997,-9.9994,-9.9991,-9.9989,-9.9988,-9.7841,-9.7999,-9.8139,-9.8241,-9.8314,-9.8478,-9.858,-9.8602,-9.8709,-9.8855,-9.8974,-9.9142,-9.9277,-9.9551,-9.9612,-9.9764,-9.9748,-9.9922,-9.977,-9.9766,-9.975,-9.974,-9.9755,-9.995,-9.9955,-9.9959,-9.9962,0,-9.7614,-9.7662,-9.7916,-9.8037,-9.8073,-9.8235,-9.8337,-9.8474,-9.8515,-9.8708,-9.8753,-9.8817,-9.8987,-9.9021,-9.9222,-9.9233,-9.9495,-9.9475,-9.9457,-9.9454,-9.9612,-9.9597,-10.0122,-10.0191,-9.9749,-9.9753,-9.9757,0,-9.7294,-9.75,-9.7558,-9.7703,-9.7931,-9.7948,-9.8172,-9.823,-9.8329,-9.8481,-9.8448,-9.8591,-9.8612,-9.8758,-9.8776,-9.8995,-9.9033,-9.9054,-9.9056,-9.9057,-9.9055,-9.9111,-9.909,-9.9056,-9.9053,-9.9051,-9.9049,0,-9.6934,-9.7207,-9.7442,-9.7511,-9.7661,-9.777,-9.7836,-9.7946,-9.8046,-9.8179,-9.8243,-9.8396,-9.848,-9.8597,-9.8619,-9.8515,-9.8888,-9.875,-9.891,-9.891,-9.899,-9.8984,-9.9443,-9.9045,-9.9044,-9.9043,-9.9043,0,-9.6682,-9.6823,-9.7157,-9.728,-9.7351,-9.7505,-9.7659,-9.7799,-9.7917,-9.794,-9.8044,-9.8026,-9.8222,-9.8082,-9.8351,-9.821,-9.8293,-9.8331,-9.8343,-9.8362,-9.8204,-9.8457,-9.8891,-9.8937,-9.838,-9.8374,-9.8369,0,-9.6256,-9.6607,-9.6626,-9.6942,-9.7109,-9.7063,-9.7233,-9.734,-9.7384,-9.7528,-9.7575,-9.7739,-9.7642,-9.7697,-9.7826,-9.788,-9.8064,-9.7856,-9.8058,-9.8065,-9.8028,-9.8429,-9.8485,-9.8792,-9.8299,-9.8306,-9.8312,0,-9.5932,-9.6116,-9.6171,-9.6251,-9.6397,-9.6536,-9.6732,-9.69,-9.6995,-9.7118,-9.7281,-9.7511,-9.7447,-9.7539,-9.754,-9.7672,-9.794,-9.7585,-9.7588,-9.7647,-9.8267,-9.8319,-9.8371,-9.791,-9.7918,-9.7925,-9.8256,0,-9.5539,-9.5721,-9.5873,-9.605,-9.6163,-9.6364,-9.6404,-9.6517,-9.6508,-9.655,-9.679,-9.6884,-9.7051,-9.7119,-9.711,-9.7404,-9.7359,-9.7289,-9.7154,-9.7416,-9.7526,-9.7571,-9.6987,-9.6983,-9.698,-9.6978,0,0,-9.512,-9.5382,-9.5395,-9.5589,-9.5685,-9.5635,-9.5845,-9.5931,-9.6108,-9.6173,-9.6099,-9.6438,-9.6518,-9.6804,-9.6889,-9.6957,-9.7011,-9.6918,-9.7291,-9.7326,-9.7359,-9.7475,-9.7522,-9.6972,-9.6971,-9.697,-9.6969,0,-9.4985,-9.5075,-9.5285,-9.5377,-9.5513,-9.5549,-9.5599,-9.5724,-9.576,-9.5997,-9.5949,-9.6096,-9.6367,-9.6457,-9.6539,-9.6886,-9.6839,-9.6933,-9.7108,-9.7258,-9.7297,-9.7332,-9.7454,-9.7498,-9.6961,-9.6962,-9.6962,0,-9.4673,-9.4768,-9.4874,-9.5092,-9.518,-9.5352,-9.5222,-9.5409,-9.5536,-9.5467,-9.5702,-9.5759,-9.5883,-9.6149,-9.627,-9.6205,-9.6679,-9.6536,-9.6557,-9.6571,-9.6718,-9.6765,-9.6807,-9.6256,-9.6254,-9.6251,0,0,-9.455,-9.472,-9.4827,-9.5066,-9.5125,-9.5182,-9.5277,-9.5278,-9.5394,-9.544,-9.5513,-9.5624,-9.578,-9.5883,-9.6033,-9.632,-9.6345,-9.6448,-9.6481,-9.6508,-9.6537,-9.6691,-9.6738,-9.6241,-9.6241,-9.6241,0,0,-9.449,-9.4625,-9.4597,-9.4881,-9.4995,-9.5113,-9.5256,-9.5223,-9.5362,-9.5343,-9.535,-9.538,-9.5629,-9.5687,-9.5552,-9.5984,-9.585,-9.5883,-9.5938,-9.5981,-9.6013,-9.5994,-9.5428,0,0,0,0,0,-9.4374,-9.4609,-9.4582,-9.4636,-9.491,-9.5128,-9.5163,-9.5177,-9.5082,-9.5195,-9.525,-9.5195,-9.5615,-9.5496,-9.5547,-9.5697,-9.6115,-9.6137,-9.6159,-9.6297,-9.6341,-9.6378,0,0,0,0,0,0,-9.4395,-9.4461,-9.4575,-9.4704,-9.4766,-9.512,-9.4962,-9.4972,-9.507,-9.5056,-9.5186,-9.5199,-9.5212,-9.547,-9.5516,-9.5659,-9.5413,-9.6124,-9.6143,-9.616,-9.6312,-9.6348,-9.6379,0,0,0,0,0,-9.4412,-9.4465,-9.4904,-9.47,-9.4754,-9.4829,-9.4953,-9.4961,-9.5036,-9.5123,-9.5134,-9.5038,-9.5216,-9.5255,-9.5497,-9.5638,-9.5381,-9.5398,-9.6136,-9.6151,-9.6165,-9.633,0,0,0,0,0,0,-9.4425,-9.4472,-9.4914,-9.4931,-9.4614,-9.4809,-9.484,-9.4951,-9.5096,-9.511,-9.4973,-9.4961,-9.5221,-9.525,-9.5281,-9.563,-9.5355,-9.5373,-9.5383,-9.6148,-9.6159,-9.617,0,0,0,0,0,0,-9.4444,-9.4487,-9.4923,-9.4813,-9.4817,-9.4791,-9.4819,-9.5026,-9.5098,-9.4938,-9.4932,-9.4966,-9.5174,-9.5249,-9.5272,-9.5595,-9.5335,-9.5352,-9.5363,-9.5371,-9.6157,-9.6166,0,0,0,0,0,0,-9.4462,-9.4499,-9.4808,-9.4812,-9.4815,-9.5003,-9.4973,-9.5253,-9.5008,-9.4932,-9.4986,-9.4976,-9.5174,-9.5197,-9.5267,-9.558,-9.5591,-9.5336,-9.5347,-9.5355,-9.5361,0,0,0,0,0,0,0,-9.4477,-9.4227,-9.4816,-9.4811,-9.4813,-9.5086,-9.509,-9.5095,-9.5006,-9.4997,-9.4988,-9.498,-9.5241,-9.5259,-9.5277,-9.5567,0,0,-9.5334,-9.5342,0,0,0,0,0,0,0,0,-9.4211,-9.4223,-9.4817,-9.482,-9.4824,-9.5086,-9.509,-9.5094,-9.5004,-9.4997,-9.499,-9.4983,-9.5246,-9.526,-9.5275,0,0,0,0,0,0,0,0,0,0,0,0,0,0,0,-9.4817,-9.482,0,-9.5087,-9.509,-9.5093,-9.5003,-9.4997,-9.4991,-9.4986,-9.525,-9.5262,-9.5274,0,0,0,0,0,0,0,0,0,0,0,0,0,0,0,0,0,0,0,0,0,0,0,0,0,0,0,0,0,0,0,0,0,0,0,0,0,0,0,0,0,0,0,0,0,0,0,0,0,0,0,0,0,0,0,0,0,0,0,0,0,0,0,0,0,0,0,0,0]}]]]